Location: Most
(50.5133°N, 13.6207°E)
Time: 21:40:11
(UTC+01:00)

ISS - Pass Details

Date: 13 July 2018
Orbit: 402 x 409 km, 51.6° (Epoch: 13 November)

Event Time Altitude Azimuth Distance (km) Brightness Sun altitude
Exits shadow 02:05:23 44° 164° (SSE) 590 -3.5 -16.6°
Drops below altitude 10° 02:08:47 10° 80° (E) 1,495 -0.7 -16.5°
Enters shadow 03:07:08 -64° 256° (WSW) 11,937 3.5 -13.2°
Maximum altitude 03:42:06 76° 351° (N) 435 -3.6 -10.4°
